AVA368 MSLP-KIAH

Flight info

Callsign AVA368
Flight time N/A
Altitude 36000
Route RELTA4C RELTA UA758 ENALO UL207 IPSEV L207 SEAGL SOULL1
Aircraft A320/M-SDE3FGHIRWY/LB1

Departure

Time N/A
Airport El Salvador International Airport Saint Óscar Arnulfo Romero y Galdámez (MSLP)

Arrival

Time 2025-09-05 05:50
Airport George Bush Intercontinental Airport (KIAH)
Time Latitude Longitude Altitude Speed Heading
2025-09-05 05:28 28.25681 -93.93014 34449 ft 428 kts 352°
2025-09-05 05:29 28.38370 -93.94198 32214 ft 440 kts 352°
2025-09-05 05:31 28.87537 -93.98854 23885 ft 426 kts 353°
2025-09-05 05:31 28.93417 -93.99410 22731 ft 420 kts 353°
2025-09-05 05:31 29.04814 -94.01141 20668 ft 406 kts 335°
2025-09-05 05:32 29.17179 -94.13854 17733 ft 397 kts 315°
2025-09-05 05:33 29.24947 -94.22594 15909 ft 385 kts 316°
2025-09-05 05:33 29.32438 -94.31085 14201 ft 373 kts 316°
2025-09-05 05:34 29.39436 -94.39721 12561 ft 365 kts 308°
2025-09-05 05:34 29.42418 -94.44343 11906 ft 364 kts 308°
2025-09-05 05:34 29.48433 -94.53608 10581 ft 359 kts 308°
2025-09-05 05:35 29.53917 -94.59126 9707 ft 338 kts 342°
2025-09-05 05:35 29.58143 -94.60913 9449 ft 310 kts 342°
2025-09-05 05:36 29.63879 -94.63393 8904 ft 282 kts 342°
2025-09-05 05:37 29.67346 -94.64883 8178 ft 280 kts 342°
2025-09-05 05:38 29.69829 -94.65945 7662 ft 280 kts 342°
2025-09-05 05:38 29.71650 -94.66725 7275 ft 279 kts 342°
2025-09-05 05:38 29.75260 -94.68277 6664 ft 275 kts 342°
2025-09-05 05:39 29.78827 -94.69816 6257 ft 274 kts 341°
2025-09-05 05:39 29.82374 -94.71410 6016 ft 275 kts 333°
2025-09-05 05:40 29.86645 -94.75801 5084 ft 272 kts 316°
2025-09-05 05:41 29.89342 -94.78820 4429 ft 269 kts 316°
2025-09-05 05:41 29.92013 -94.81798 3814 ft 265 kts 316°
2025-09-05 05:41 29.93350 -94.83261 3543 ft 264 kts 316°
2025-09-05 05:42 29.95854 -94.86164 3040 ft 259 kts 302°
2025-09-05 05:43 29.97251 -94.90067 2982 ft 259 kts 289°
2025-09-05 05:43 29.97712 -94.92065 2980 ft 258 kts 273°
2025-09-05 05:43 29.97728 -94.96189 2784 ft 257 kts 268°
2025-09-05 05:44 29.97739 -95.02348 2508 ft 255 kts 268°
2025-09-05 05:45 29.97746 -95.06435 2321 ft 254 kts 268°
2025-09-05 05:45 29.97749 -95.08472 2242 ft 254 kts 267°
2025-09-05 05:45 29.97754 -95.12527 2049 ft 252 kts 267°
2025-09-05 05:46 29.97758 -95.16440 1838 ft 232 kts 267°
2025-09-05 05:47 29.97764 -95.21340 1575 ft 186 kts 265°
2025-09-05 05:47 29.97763 -95.22811 1324 ft 179 kts 265°
2025-09-05 05:47 29.97764 -95.25401 940 ft 149 kts 266°
2025-09-05 05:48 29.97763 -95.26577 756 ft 145 kts 266°
2025-09-05 05:48 29.97769 -95.30006 161 ft 142 kts 267°
2025-09-05 05:49 29.97760 -95.31821 107 ft 73 kts 270°
2025-09-05 05:49 29.97759 -95.32672 106 ft 31 kts 277°
2025-09-05 05:50 29.97868 -95.33169 107 ft 23 kts 269°
2025-09-05 05:50 29.97867 -95.33337 108 ft 17 kts 269°
2025-09-05 05:51 29.98054 -95.33397 107 ft 14 kts 359°
2025-09-05 05:51 29.98233 -95.33398 107 ft 12 kts
2025-09-05 05:52 29.98298 -95.33430 107 ft 10 kts 295°
2025-09-05 05:53 29.98447 -95.33715 107 ft 12 kts 358°
2025-09-05 05:53 29.98493 -95.33791 107 ft 2 kts 292°
2025-09-05 05:54 29.98496 -95.33800 107 ft 0 kts 292°